Starlink 30822

operational
NORAD ID: 58193 Int'l Des: 2023-167 Owner: SPXS Country: US Constellation: starlink
LEOCIRCULAR

Starlink 30822について

説明を読み込み中...

リアルタイム位置

3D地球を読み込み中...

次回通過

高度履歴

Altitude vs Time

uPlot chart will show altitude changes over time

軌道要素

1 58193U 23167U 25350.98310621 -.00004347 00000-0 -30686-3 0 9996
2 58193 43.0035 235.3691 0001176 270.8537 89.2171 15.02541801118510
Epoch: Dec 16, 2025 • Age: 5 hours

現在のステータス

高度 562.5 km
速度 7.59 km/s
衛星直下点 40.65°N, 171.06°W
打ち上げ日 Oct 30, 2023
運用期間 2.1 years
タイプ internet

技術仕様

分類 Payload
質量 730.00 kg
乾燥質量 700.00 kg
総質量 730.00 kg
長さ 0.30 m
直径 4.10 m
スパン 29.00 m
形状 Box + pan
製造者 SPXS
バスタイプ Starlink V2M
フェーズステータス In Orbit
所有者/国 SPXS/US

大規模コンステレーション

Loading constellations...